User: anonymous   Login
Location: *
(37.5724°S, 58.0067°E)
Time: 18:24:07
(UTC+00:00)
Language:

Cosmos 1862 Rocket - Orbit

View from above orbital plane
View from above orbital plane
View from above satellite
View from above satellite

Ground track
Ground track

The orbit data is extracted from the following two-line orbital elements,

1 18153U 87055B   21105.87656006  .00000091  00000-0  81417-5 0  9996
2 18153  82.5016 231.1865 0022304 152.0787 208.1630 14.83323031804616
Epoch (UTC): 15 April 2021 21:02:14
Eccentricity: 0.0022304
inclination: 82.5016°
perigee height: 603 km
apogee height: 634 km
right ascension of ascending node: 231.1865°
argument of perigee: 152.0787°
revolutions per day: 14.83323031
mean anomaly at epoch: 208.1630°
orbit number at epoch: 80461

The dashed part of the orbit path shows where the satellite is in the earth's shadow,  

DLR